Regional Weather Roundup
Issued by NWS

Home | Current Version | Previous Version | Graphics & Text | Print | Product List | Glossary On
Versions: 1 2 3 4 5 6 7 8 9 10 11 12 13 14 15 16 17 18 19 20 21 22 23 24 25 26 27 28 29 30 31 32 33 34 35 36 37 38 39 40 41 42 43 44 45 46 47 48 49 50
000
ASUS43 KLMK 160202
RWRKY
KENTUCKY REGIONAL WEATHER ROUNDUP
NATIONAL WEATHER SERVICE LOUISVILLE KY
900 PM EST MON JAN 15 2018

NOTE "FAIR" INDICATES FEW OR NO CLOUDS BELOW 12,000 FEET
WITH NO SIGNIFICANT WEATHER AND/OR OBSTRUCTIONS TO VISIBILITY.

KYZ001>023-026-027-061>063-070>075-160300-
WESTERN AND SOUTH CENTRAL KENTUCKY

CITY           SKY/WX    TMP DP  RH WIND       PRES   REMARKS
PADUCAH        LGT SNOW  22  18  85 N9        30.47R FOG     WCI  12
HENDERSON      FAIR      19  10  68 NW7       30.49R WCI  10
OWENSBORO      LGT SNOW  18  15  88 N9        30.47R FOG     WCI   7
HOPKINSVILLE   LGT SNOW  29  29  99 NW9       30.39S FOG     WCI  21
BOWLING GREEN  CLOUDY    31  28  89 NW5       30.40R WCI  26
GLASGOW        NOT AVBL
$$

KYZ024-025-028>034-038-045-046-053-160300-
NORTH CENTRAL KENTUCKY

CITY           SKY/WX    TMP DP  RH WIND       PRES   REMARKS
LOUISVILLE/SDF LGT SNOW  25  20  81 W16       30.40R WCI  12
LOUISVILLE/LOU LGT SNOW  26  22  84 W10       30.40R FOG     WCI  16
FORT KNOX      LGT SNOW  24  21  89 W7        30.37R FOG     WCI  15
$$

KYZ035>037-039>044-047>052-055>060-089>105-160300-
NORTHEAST KENTUCKY

CITY           SKY/WX    TMP DP  RH WIND       PRES   REMARKS
LEXINGTON      CLOUDY    29  24  82 W10       30.35R WCI  20
COVINGTON      LGT SNOW  27  27 100 SW5       30.31S FOG     WCI  22
FRANKFORT      LGT SNOW  29  24  82 SW7       30.34R WCI  22
$$

KYZ054-064>069-076>088-106>120-160300-
SOUTHEAST KENTUCKY

CITY           SKY/WX    TMP DP  RH WIND       PRES   REMARKS
JACKSON        CLOUDY    34  28  79 W8        30.30S WCI  27
LONDON         CLOUDY    37  28  70 W6        30.31S WCI  32
SOMERSET       NOT AVBL
MIDDLESBORO    FAIR      31  25  77 CALM      30.34F
MONTICELLO     MOCLDY    33  28  81 NW9       30.36R WCI  25
$$





USA.gov is the U.S. government's official web portal to all federal, state and local government web resources and services.